This demonstration page uses our WeatherBlox Daily Observations layout. Learn more.

Left ArrowRight Arrow

Hourly Observations for August 22, 2015

Temp ( °F °C ) Dew Point ( °F °C ) Humidity (%) Winds ( mph kmh ) Pressure ( in mb ) Visibility ( mi km ) Precip ( " mm )
12:53 am 00:53 Clear 74 23.3 54 12.2 50 50 Calm 29.83 1010 10 16 0.00 0.00
1:53 am 01:53 Clear 70 21.1 55 12.8 59 59 Calm 29.83 1010 10 16 0.00 0.00
2:53 am 02:53 Clear 69 20.6 53 11.7 57 57 Calm 29.83 1010 10 16 0.00 0.00
3:53 am 03:53 Clear 67 19.4 54 12.2 63 63 Calm 29.83 1010 10 16 0.00 0.00
4:53 am 04:53 Clear 67 19.4 53 11.7 61 61 Calm 29.84 1010 10 16 0.00 0.00
5:53 am 05:53 Clear 65 18.3 54 12.2 68 68 Calm 29.84 1011 10 16 0.00 0.00
6:53 am 06:53 Sunny 65 18.3 52 11.1 63 63 Calm 29.85 1011 10 16 0.00 0.00
7:53 am 07:53 Sunny 69 20.6 51 10.6 53 53 Calm 29.86 1011 10 16 0.00 0.00
8:53 am 08:53 Sunny 75 23.9 52 11.1 45 45 Calm 29.86 1011 10 16 0.00 0.00
9:53 am 09:53 Sunny 80 26.7 52 11.1 38 38 VRB 3 6 29.85 1011 10 16 0.00 0.00
10:53 am 10:53 Sunny 84 28.9 52 11.1 33 33 Calm 29.84 1010 10 16 0.00 0.00
11:53 am 11:53 Sunny 88 31.1 51 10.6 28 28 S 5 7 29.83 1010 9 14 0.00 0.00
12:53 pm 12:53 Sunny 93 33.9 50 10 23 23 S 6 9 29.80 1009 10 16 0.00 0.00
1:53 pm 13:53 Sunny 97 36.1 45 7.2 17 17 VRB 3 6 29.79 1009 10 16 0.00 0.00
2:53 pm 14:53 Sunny 98 36.7 46 7.8 17 17 S 12 19 29.77 1008 10 16 0.00 0.00
3:53 pm 15:53 Sunny 98 36.7 48 8.9 18 18 SSE 15 24 29.75 1008 10 16 0.00 0.00
4:53 pm 16:53 Sunny 98 36.7 48 8.9 18 18 SSE 13 20 29.75 1007 10 16 0.00 0.00
5:53 pm 17:53 Sunny 96 35.6 49 9.4 20 20 S 13 20 29.75 1007 10 16 0.00 0.00
6:53 pm 18:53 Sunny 94 34.4 49 9.4 21 21 SSE 12 19 29.75 1008 10 16 0.00 0.00
7:53 pm 19:53 Sunny 89 31.7 50 10 26 26 SSE 7 11 29.78 1008 10 16 0.00 0.00
8:53 pm 20:53 Clear 85 29.4 52 11.1 32 32 SE 10 17 29.80 1009 10 16 0.00 0.00
9:53 pm 21:53 Clear 82 27.8 57 13.9 42 42 VRB 3 6 29.83 1010 10 16 0.00 0.00
10:53 pm 22:53 Clear 78 25.6 55 12.8 45 45 N 3 6 29.84 1011 10 16 0.00 0.00
11:53 pm 23:53 Clear 77 25 55 12.8 47 47 Calm 29.85 1011 10 16 0.00 0.00

Powered by AerisWeather